Location: *
(46.4667°N, 9.6500°E)
Time: 08:40:48
(UTC+00:00)

Daily predictions for brighter satellites

Satellite Brightness Start Highest point End
(mag) Time Altitude Azimuth Time Altitude Azimuth Time Altitude Azimuth
ARGOS 3.5 18:21:41 10° SE 18:26:50 47° ENE 18:31:58 10° N
SL-16 R/B 4.0 18:23:24 10° WSW 18:28:35 36° NW 18:33:49 10° NNE
FREGAT/IRIS 3.0 18:27:36 10° SE 18:30:07 35° ENE 18:32:39 10° N
IRIDIUM 103 4.4 18:25:36 10° N 18:30:46 57° E 18:35:54 10° SSE
SJ-11-01 4.3 18:27:34 10° SSE 18:32:16 80° ENE 18:37:02 10° N
Intercosmos 24 Rocket 4.5 18:29:33 10° S 18:34:29 73° E 18:38:14 10° NNE
Resurs 01 Rocket 3.3 18:31:36 10° ESE 18:34:30 17° ENE 18:37:25 10° NNE
Cosmos 1825 Rocket 3.8 18:31:44 10° N 18:36:02 51° ENE 18:40:16 10° SSE
USA 186 2.0 18:35:17 10° SSE 18:38:31 52° ENE 18:41:38 10° N
Cosmos 921 Rocket 4.3 18:38:31 10° N 18:41:51 22° ENE 18:44:56 11° ESE
GEOS 3 Rocket 4.0 18:37:11 10° SSE 18:42:17 65° SW 18:47:30 10° NW
Aureole 3 4.3 18:38:13 10° SSW 18:43:03 82° W 18:49:17 10° N
ARGOS Delta rocket 4.3 18:38:00 10° S 18:43:20 83° WSW 18:48:51 10° NNW
Cosmos 407 Rocket 4.0 18:39:31 10° SSE 18:44:09 35° ESE 18:48:46 10° NE
STARLINK-1233 4.3 18:42:02 10° NW 18:44:51 30° NNE 18:47:42 10° ENE
STARLINK-1234 4.1 18:42:11 10° NW 18:45:01 33° NNE 18:47:45 11° E
STARLINK-1212 4.3 18:42:30 10° NW 18:45:19 30° NNE 18:48:09 10° ENE
STARLINK-1105 4.3 18:42:56 10° NW 18:45:47 30° NNE 18:48:37 10° ENE
STARLINK-1209 4.0 18:43:22 10° NW 18:46:12 34° NNE 18:48:51 11° E
STARLINK-1206 4.3 18:43:25 10° NW 18:46:14 30° NNE 18:49:03 10° ENE
STARLINK-1247 4.3 18:43:52 10° NW 18:46:41 30° NNE 18:49:30 10° ENE
STARLINK-1227 4.3 18:44:17 10° NW 18:47:07 30° NNE 18:49:57 10° E
STARLINK-1218 4.3 18:44:46 10° NW 18:47:36 30° NNE 18:50:22 10° ENE
Cosmos 2228 3.2 18:43:37 10° SSE 18:47:44 48° E 18:51:56 10° NNE
STARLINK-1226 4.3 18:45:13 10° NW 18:48:03 30° NNE 18:50:49 10° ENE
STARLINK-1254 4.3 18:45:38 10° NW 18:48:29 31° NNE 18:51:15 11° E
STARLINK-1215 4.3 18:46:08 10° NW 18:48:58 30° NNE 18:51:40 11° ENE
IRIDIUM 106 4.3 18:43:49 10° N 18:49:05 82° E 18:54:18 10° S
STARLINK-1231 4.2 18:46:34 10° NW 18:49:24 30° NNE 18:52:06 11° ENE
Cosmos 1758 Rocket 3.5 18:45:29 10° N 18:49:50 84° E 18:54:09 10° S
SPOT 3 Rocket 4.0 18:44:57 10° SE 18:49:51 44° ENE 18:54:48 10° N
STARLINK-1232 4.2 18:47:29 10° NW 18:50:19 31° NNE 18:52:59 11° ENE
STARLINK-1217 4.2 18:47:55 10° NW 18:50:46 31° NNE 18:53:24 11° ENE
STARLINK-1208 4.2 18:48:20 10° NW 18:51:12 31° NNE 18:53:51 11° E
Cosmos 1603 4.0 18:45:39 10° SSW 18:51:16 74° WNW 18:56:54 10° NNE
STARLINK-1229 4.2 18:48:49 10° NW 18:51:40 31° NNE 18:54:16 12° ENE
Cosmos 1461 3.7 18:47:30 10° NNW 18:51:49 43° NE 18:55:35 14° ESE
STARLINK-1271 4.2 18:49:16 10° NW 18:52:07 31° NNE 18:54:42 12° ENE
Aureole 1 Rocket 4.3 18:45:15 10° S 18:52:32 51° ESE 18:58:20 10° NNE
STARLINK-1270 4.2 18:49:44 10° NW 18:52:35 31° NNE 18:55:08 12° ENE
STARLINK-1154 4.2 18:50:11 10° NW 18:53:02 31° NNE 18:55:34 12° ENE
STARLINK-1197 4.2 18:51:05 10° NW 18:53:57 32° NNE 18:56:26 12° ENE
STARLINK-1189 4.2 18:51:32 10° NW 18:54:24 32° NNE 18:56:52 12° ENE
STARLINK-1198 4.2 18:51:59 10° NW 18:54:50 32° NNE 18:57:18 13° ENE
STARLINK-1188 4.2 18:52:25 10° NW 18:55:18 32° NNE 18:57:44 13° ENE
STARLINK-1235 3.9 18:53:03 10° NW 18:56:01 36° NNE 18:58:23 14° E
SJ-6B 2.9 18:52:16 10° SSE 18:56:22 68° ENE 19:00:29 10° N
STARLINK-1187 4.1 18:53:29 10° NW 18:56:26 35° NNE 18:58:50 14° E
STARLINK-29 4.0 18:54:16 10° SSW 18:56:58 25° SE 18:58:47 15° E
STARLINK-1199 4.1 18:54:21 10° NW 18:57:15 33° NNE 18:59:39 13° E
STARLINK-1191 4.1 18:54:49 10° NW 18:57:43 33° NNE 19:00:06 14° E
Cosmos 1953 Rocket 3.7 18:53:19 10° N 18:57:45 59° ENE 19:02:11 10° SSE
STARLINK-1210 4.1 18:55:16 10° NW 18:58:10 33° NNE 19:00:31 14° E
STARLINK-1221 4.1 18:55:43 10° NW 18:58:38 33° NNE 19:00:58 14° E
Cosmos 1606 Rocket 3.5 18:54:20 10° S 18:58:43 68° E 19:03:11 10° NNE
STARLINK-60 3.1 18:55:37 10° SW 18:58:51 56° SE 19:02:04 10° ENE
STARLINK-1219 4.1 18:56:09 10° NW 18:59:04 33° NNE 19:01:23 14° E
ATLAS 5 CENTAUR R/B 2.0 18:55:20 10° S 18:59:06 35° ESE 19:03:14 10° NE
Cosmos 2074 Rocket 4.1 18:53:00 10° N 18:59:19 90° ESE 19:05:37 10° S
STARLINK-1222 4.1 18:56:37 10° NW 18:59:32 33° NNE 19:01:49 14° E
STARLINK-1211 4.1 18:57:04 10° NW 18:59:59 34° NNE 19:02:15 14° E
STARLINK-1214 4.1 18:57:31 10° NW 19:00:25 34° NNE 19:02:41 15° E
STARLINK-1245 4.1 18:58:00 10° NW 19:00:54 34° NNE 19:03:07 15° ENE
STARLINK-1238 4.1 18:58:25 10° NW 19:01:20 34° NNE 19:03:34 15° E
STARLINK-1205 4.0 18:59:22 10° NW 19:02:16 34° NNE 19:04:25 15° ENE
STARLINK-1204 4.0 18:59:48 10° NW 19:02:43 34° NNE 19:04:50 15° ENE
Meteor 1-16 Rocket 4.1 18:57:51 10° S 19:03:15 86° E 19:08:52 10° NNE
Cosmos 1818 3.7 18:58:39 10° SW 19:04:06 82° NW 19:09:35 10° NE
Abrixas rocket 2.1 19:06:51 10° WNW 19:09:48 64° N 19:11:30 22° E
Cosmos 1943 Rocket 4.2 19:07:16 10° NW 19:11:50 27° WSW 19:16:24 10° SSW
NOSS 3-4 (A) 3.9 19:06:58 10° NW 19:13:59 86° NE 19:20:34 15° SE
NOSS 3-4 (C) 3.9 19:07:04 10° NW 19:14:05 86° NE 19:20:38 15° SE
Cosmos 1610 Rocket 4.4 19:09:42 10° N 19:15:56 80° E 19:22:04 10° SSE
Cosmos 1300 3.6 19:17:23 23° ESE 19:18:34 28° E 19:21:52 10° NNE
FALCON 9 DEB 3.7 19:15:35 10° SSW 19:18:49 37° SE 19:20:16 25° E
SL-4 R/B 1.7 19:16:15 10° WSW 19:19:38 69° NNW 19:22:39 13° ENE
Cosmos 2369 Rocket 4.0 19:16:38 10° NW 19:21:30 30° WSW 19:26:19 10° SSW
MOS 1 Rocket 3.8 19:17:47 10° NNE 19:23:04 52° E 19:28:22 10° S
Cosmos 1340 Rocket 2.8 19:19:06 10° S 19:23:06 63° E 19:27:06 10° NNE
STARLINK-1201 3.7 19:20:53 10° NW 19:24:02 43° NNE 19:25:27 26° ENE
CZ-2C R/B 3.7 19:20:44 10° NNE 19:25:28 78° ESE 19:30:05 10° S
H-2A R/B 3.0 19:20:47 10° S 19:25:48 47° W 19:30:42 10° NNW
Cosmos 1703 3.8 19:22:05 10° NNW 19:26:00 60° W 19:29:54 10° S
Cosmos 1328 4.3 19:22:40 10° NNW 19:26:39 62° W 19:30:35 10° S
STARLINK-67 2.2 19:24:08 10° WNW 19:26:42 86° NNE 19:27:10 55° ESE
CZ-2C R/B 3.8 19:23:52 10° S 19:28:34 47° W 19:33:10 10° NNW
Cosmos 1295 Rocket 4.5 19:25:08 10° N 19:31:28 78° E 19:37:34 11° SSE
SL-08 RB Rocket 4.3 19:32:04 10° S 19:36:33 56° W 19:41:06 10° NNW
Cosmos 1908 3.9 19:33:01 10° SSW 19:36:49 55° WNW 19:40:39 10° N
STARLINK-52 3.0 19:34:15 10° SW 19:37:22 49° SE 19:37:28 49° SE
Resurs 1-3 3.6 19:37:16 18° S 19:40:34 82° WSW 19:44:58 10° NNW
STARLINK-1243 4.4 19:38:11 10° NW 19:42:10 43° NNE 19:44:00 26° ENE
USA 234 3.6 19:36:11 10° ENE 19:42:16 40° SE 19:48:20 10° SSW
Iridium 4 Rocket 4.0 19:41:24 10° NNE 19:44:57 28° ENE 19:44:57 28° ENE
ATLAS 2AS CENTAUR R/B 3.2 19:38:48 10° NW 19:46:14 62° WSW 19:51:22 19° SSE
STARLINK-1228 2.5 19:44:04 10° WNW 19:47:01 85° NNE 19:47:06 83° E
STARLINK-1236 4.4 19:43:09 10° NW 19:47:09 44° NNE 19:48:47 29° ENE
CZ-4C R/B 4.2 19:46:01 10° NNW 19:51:33 26° NNE 19:56:49 13° ENE
Cosmos 1140 Rocket 3.5 19:46:35 10° SSW 19:51:47 84° WNW 19:56:59 10° NNE
Cosmos 2341 Rocket 4.0 19:49:00 10° N 19:55:26 86° E 19:59:56 21° S
STARLINK-1269 4.2 19:53:06 10° NW 19:57:09 48° NNE 19:58:20 36° ENE
Cosmos 1190 Rocket 4.4 19:52:59 10° SSW 19:58:16 66° WNW 20:03:33 10° NNE
Spot 2 Rocket 3.6 19:56:54 39° SE 19:58:35 58° ENE 20:03:36 10° N
Cosmos 2058 Rocket 3.7 19:54:18 10° SSW 19:58:43 56° WNW 20:03:11 10° N
Landsat 7 4.3 19:58:57 39° E 19:59:47 43° ENE 20:04:17 10° N
DMSP B5D2-2 4.3 19:55:33 10° N 20:00:45 71° WNW 20:05:58 10° SSW
CZ-2C R/B 2.6 19:56:14 10° NNE 20:01:26 82° WNW 20:06:38 10° SSW
STARLINK-1200 4.1 19:58:05 10° NW 20:02:09 51° NNE 20:03:07 41° ENE
COSMOS 2455 2.9 19:56:19 10° NW 20:02:22 80° WSW 20:05:12 33° SSE
Cosmos 1697 Rocket 4.1 19:57:51 10° N 20:02:26 24° NE 20:04:03 21° ENE
IGS 5A 3.9 20:06:53 44° ENE 20:06:53 44° ENE 20:10:49 10° N
STARLINK-1192 4.0 20:03:04 10° WNW 20:07:09 53° NNE 20:07:54 46° ENE
Iridium 2 3.6 20:07:49 68° ENE 20:07:49 68° ENE 20:11:31 10° N
Cosmos 2218 Rocket 3.9 20:03:34 10° N 20:09:47 70° E 20:12:18 38° SSE
Resurs 01 Rocket 2.1 20:08:30 29° SSW 20:10:34 57° W 20:14:56 10° NNW
STARLINK-1244 3.9 20:08:02 10° WNW 20:12:08 56° NNE 20:12:41 51° NE
ERBS 3.3 20:09:26 10° NW 20:12:22 40° NNE 20:12:22 40° NNE
BREEZE-M DEB (TANK) 2.9 20:12:35 10° W 20:15:10 36° NW 20:15:10 36° NW
ATLAS CENTAUR R/B 3.4 20:13:56 10° N 20:16:25 16° NNE 20:16:45 16° NE
STARLINK-1138 3.8 20:13:01 10° WNW 20:17:08 59° NNE 20:17:28 57° NE
Cosmos 468 Rocket 4.0 20:12:08 10° NNW 20:17:16 58° ENE 20:18:01 53° E
Cosmos 921 Rocket 4.1 20:16:23 10° NW 20:20:15 37° WSW 20:21:45 28° SW
STARLINK-1234 4.4 20:17:50 10° WNW 20:19:47 33° W 20:19:47 33° W
STARLINK-1233 4.2 20:17:46 10° WNW 20:19:56 40° WNW 20:19:56 40° WNW
STARLINK-1212 4.2 20:18:13 10° WNW 20:20:22 39° WNW 20:20:22 39° WNW
STARLINK-1105 4.2 20:18:40 10° WNW 20:20:48 39° WNW 20:20:48 39° WNW
Meteor 2-12 Rocket 4.4 20:15:59 10° N 20:22:04 65° ENE 20:23:32 49° SE
STARLINK-1143 3.8 20:17:59 10° WNW 20:22:07 62° NNE 20:22:14 62° NE
STARLINK-1206 4.3 20:19:09 10° WNW 20:21:13 37° WNW 20:21:13 37° WNW
STARLINK-1247 4.3 20:19:36 10° WNW 20:21:39 37° WNW 20:21:39 37° WNW
STARLINK-1227 4.3 20:20:01 10° WNW 20:22:06 37° WNW 20:22:06 37° WNW
USA 245 4.3 20:21:27 45° SSE 20:23:25 86° ENE 20:29:50 10° NNW
STARLINK-1218 4.4 20:20:31 10° WNW 20:22:31 36° WNW 20:22:31 36° WNW
STARLINK-1226 4.4 20:20:57 10° WNW 20:22:58 35° WNW 20:22:58 35° WNW
STARLINK-1254 4.4 20:21:22 10° WNW 20:23:24 36° WNW 20:23:24 36° WNW
STARLINK-1215 4.5 20:21:52 10° WNW 20:23:49 34° WNW 20:23:49 34° WNW
Cosmos 2181 Rocket 4.0 20:20:34 19° S 20:25:13 84° W 20:31:27 10° N
STARLINK-1231 4.5 20:22:18 10° WNW 20:24:15 34° WNW 20:24:15 34° WNW
SL-8 Rocket 4.1 20:19:50 10° N 20:26:10 78° W 20:29:12 33° S
Cosmos 676 Rocket 4.4 20:21:49 10° SSW 20:27:02 62° WNW 20:32:16 10° NNE
STARLINK-1241 3.8 20:23:00 10° WNW 20:27:04 66° NNE 20:27:04 66° NNE
ERS-1 Rocket 3.1 20:27:20 53° E 20:27:33 53° ENE 20:32:26 10° N
Cosmos 1455 4.4 20:30:11 17° NE 20:30:11 17° NE 20:31:17 10° NNE
Cosmos 864 Rocket 4.4 20:22:29 10° N 20:28:44 86° E 20:30:45 46° SSE
Cosmos 1812 Rocket 3.4 20:29:45 88° SW 20:29:47 89° W 20:34:09 10° N
Cosmos 1656 3.8 20:24:35 10° NNW 20:30:11 56° ENE 20:30:56 52° E
Cosmos 1980 Rocket 3.7 20:27:13 10° N 20:31:38 23° NE 20:32:34 22° ENE
STARLINK-1239 3.8 20:27:56 10° WNW 20:31:48 67° N 20:31:48 67° N
Cosmos 1892 3.2 20:28:53 10° N 20:32:00 55° N 20:32:00 55° N
SPOT 5 3.3 20:34:13 41° NE 20:34:13 41° NE 20:37:39 10° N
STARLINK-1240 3.9 20:32:56 10° WNW 20:36:36 65° NNW 20:36:36 65° NNW
Cosmos 220 Rocket 4.2 20:33:59 10° NNW 20:38:14 66° WSW 20:38:14 66° WSW
Cosmos 2366 rocket 4.0 20:32:53 10° N 20:39:03 77° W 20:41:06 44° S
Terra 2.6 20:42:27 41° NE 20:42:27 41° NE 20:46:19 10° N
STARLINK-1216 4.1 20:37:55 10° WNW 20:41:24 60° NW 20:41:24 60° NW
Cosmos 1825 4.0 20:39:16 10° N 20:41:04 24° NNE 20:41:04 24° NNE
ATLAS 5 CENTAUR R/B 3.2 20:39:45 10° WSW 20:43:41 34° NW 20:48:07 10° NNE
STARLINK-1237 4.3 20:42:53 10° WNW 20:46:09 54° NW 20:46:09 54° NW
Nadezhda 3 Rocket 4.2 20:50:21 53° E 20:50:21 53° E 20:56:15 10° NNE
Cosmos 2058 3.7 20:47:07 10° NNW 20:50:47 49° WNW 20:50:47 49° WNW
Cosmos 2151 3.9 20:46:58 10° N 20:49:51 41° NNE 20:49:51 41° NNE
STARLINK-1202 4.5 20:47:52 10° WNW 20:50:57 49° WNW 20:50:57 49° WNW
SPOT 1/Viking Rocket 3.5 20:52:37 70° SW 20:53:00 74° WSW 20:58:16 10° NNW
RESURS DK-1 3.5 20:50:24 10° NNW 20:53:17 39° N 20:53:17 39° N
Cosmos 1741 Rocket 3.9 20:54:59 87° NNE 20:54:59 87° NNE 21:00:15 10° NNE
Cosmos 2278 4.4 20:53:43 10° NNW 20:58:59 39° NE 20:58:59 39° NE
SL-4 R/B 3.8 20:56:24 10° WNW 20:58:17 25° NW 20:58:17 25° NW
Cosmos 2082 Rocket 4.2 21:03:59 16° NE 21:03:59 16° NE 21:05:14 10° NE
Cosmos 2208 Rocket 4.2 20:56:08 10° NNW 21:00:47 62° NNE 21:00:47 62° NNE
Cosmos 1763 Rocket 3.8 21:05:43 10° NNW 21:10:29 59° W 21:10:29 59° W
Cosmos 1833 Rocket 3.9 21:13:44 31° NE 21:13:44 31° NE 21:16:43 10° NE
Cosmos 489 Rocket 4.3 21:08:16 10° NNW 21:14:30 82° WSW 21:14:41 81° SW
Cosmos 2239 Rocket 4.4 21:10:04 10° N 21:16:11 76° ENE 21:16:11 76° ENE
BREEZE M DEB (TANK) 3.8 21:13:20 10° WSW 21:17:38 82° NNW 21:33:06 10° ENE
Cosmos-2242 4.4 21:21:21 35° N 21:21:21 35° N 21:24:02 10° N
Cosmos 1814 Rocket 4.3 21:14:54 10° NNW 21:19:27 63° N 21:19:27 63° N
Cosmos 540 Rocket 3.9 21:15:08 10° NNW 21:19:20 58° N 21:19:20 58° N
Cosmos 1821 Rocket 3.9 21:14:03 10° N 21:20:28 89° W 21:20:35 87° S
COSMOS 2406 3.3 21:20:59 74° NNW 21:20:59 74° NNW 21:26:21 10° NNE
Meteor 2-10 Rocket 3.9 21:23:20 64° NNW 21:23:20 64° NNW 21:28:06 10° N
Cosmos 1934 Rocket 4.2 21:19:02 10° N 21:24:38 60° NE 21:24:38 60° NE
USA 234 3.4 21:19:03 10° NE 21:25:35 73° NNW 21:32:05 10° WSW
Cosmos 2369 4.1 21:35:30 10° NNW 21:40:06 59° NW 21:40:06 59° NW
CZ-4C R/B 3.0 21:34:17 10° NW 21:41:22 68° NE 21:42:00 65° ENE
ASTEX 1 4.5 21:44:36 42° N 21:44:36 42° N 21:47:53 10° N
Cosmos 1697 Rocket 3.3 21:41:17 10° NNW 21:45:47 54° NW 21:45:47 54° NW
Mayak 1.2 21:46:34 10° NNE 21:47:46 19° N 21:47:46 19° N
ATLAS CENTAUR R/B 4.0 21:52:03 10° NW 21:52:56 16° NW 21:52:56 16° NW
SL-16 R/B 3.5 22:00:00 10° NNW 22:04:14 32° NNE 22:04:14 32° NNE
Cosmos 2360 Rocket 4.1 22:04:17 10° N 22:08:17 19° NE 22:08:30 19° NE
Cosmos 2322 Rocket 3.6 22:08:29 10° NNW 22:12:34 31° NNE 22:12:34 31° NNE
Cosmos 1980 Rocket 3.2 22:10:36 10° NNW 22:14:19 43° NW 22:14:19 43° NW
Terra 4.0 22:21:20 20° WNW 22:21:20 20° WNW 22:23:34 10° NW
Cosmos 2082 Rocket 3.4 22:45:48 38° NNW 22:45:48 38° NNW 22:49:44 10° NNE
Cosmos 1833 Rocket 4.3 22:55:21 28° NW 22:55:28 28° NW 23:00:18 10° N
Cosmos 2344 4.4 22:47:42 10° NW 22:57:27 71° WSW 22:58:33 68° SSW
Cosmos 2219 Rocket 4.2 23:02:45 10° N 23:06:47 20° NE 23:07:19 20° NE
USA 234 4.4 23:02:06 10° NE 23:08:04 39° NNW 23:14:01 10° WNW
COSMOS 2428 4.5 23:23:16 10° N 23:27:58 25° NE 23:28:04 25° NE
CZ-4C R/B 4.2 23:23:11 10° NW 23:27:10 29° W 23:27:10 29° W
SL-16 R/B 4.1 23:44:02 10° NW 23:46:05 22° NW 23:46:05 22° NW
Cosmos 2360 Rocket 3.7 23:47:26 10° NNW 23:50:15 31° NNW 23:50:15 31° NNW
